Duluth, MN

7:28 PM CDT on May 20, 2018 (GMT -0500)
Duluth International

Weather History for KDLH - July, 2013

Change the Weather History Date:

Sunday, July 28, 2013

  Actual Average Record
Temperature  
Mean Temperature 61 °F 66 °F  
Max Temperature 71 °F 77 °F 97 °F (2006)
Min Temperature 51 °F 56 °F 45 °F (1992)
Degree Days  
Heating Degree Days 4 2  
Month to date heating degree days 44 62  
Since 1 June heating degree days 190 241  
Since 1 July heating degree days 44 62  
Cooling Degree Days 0 3  
Month to date cooling degree days 135 81  
Year to date cooling degree days 189 115  
Since 1 June cooling degree days 188 111  
Growing Degree Days 11 (Base 50)    
Moisture  
Dew Point 49 °F    
Average Humidity 67    
Maximum Humidity 89    
Minimum Humidity 44    
Precipitation  
Precipitation 0.00 in 0.11 in 2.73 in (1991)
Month to date precipitation 1.56 3.51  
Year to date precipitation 19.44 16.66  
Snow  
Snow 0.00 in 0.00 in 0.00 in (2002)
Month to date snowfall 0.0 0.0  
Since 1 June snowfall 0.0 0.0  
Since 1 July snowfall 0.0 0.0  
Snow Depth 0.00 in    
Sea Level Pressure  
Sea Level Pressure 29.99 in    
Wind  
Wind Speed 8 mph (NNW)    
Max Wind Speed 17 mph    
Max Gust Speed 22 mph    
Visibility 10 miles    
Events      
T = Trace of Precipitation, MM = Missing Value Source: NWS Daily Summary

Daily Weather History Graph

Daily Weather History Graph

Search for Another Location

Airport or City:

Astronomy

Jul. 28, 2013 Rise Set
Actual Time 5:44 AM CDT 8:45 PM CDT
Civil Twilight 5:08 AM CDT 9:21 PM CDT
Nautical Twilight 4:21 AM CDT 10:07 PM CDT
Astronomical Twilight 3:25 AM CDT 11:03 PM CDT
Moon 11:36 PM CDT (7/28) 12:57 PM CDT (7/28)
Length of Visible Light 16h 13m
Length of Day
15h 01m
Waning Gibbous, 60% of the Moon is Illuminated
Jul 28
Waning Gibbous
Jul 29
Last Quarter
Aug 6
New
Aug 14
First Quarter
Aug 20
Full

Hourly Weather History & Observations

Time (CDT) Temp. Dew Point Humidity Pressure Visibility Wind Dir Wind Speed Gust Speed Precip Events Conditions
12:55 AM 52.0 °F 48.0 °F 86% 29.95 in 10.0 mi NNW 9.2 mph - N/A   Overcast
1:55 AM 52.0 °F 48.0 °F 86% 29.96 in 10.0 mi NNW 10.4 mph - N/A   Overcast
2:48 AM 51.8 °F 46.4 °F 82% 29.93 in 10.0 mi NNW 8.1 mph - N/A   Overcast
2:55 AM 52.0 °F 48.0 °F 86% 29.95 in 10.0 mi NNW 6.9 mph - N/A   Overcast
3:55 AM 52.0 °F 46.9 °F 83% 29.96 in 10.0 mi NNW 9.2 mph - N/A   Overcast
4:55 AM 52.0 °F 46.9 °F 83% 29.96 in 10.0 mi NNW 15.0 mph 20.7 mph N/A   Overcast
5:55 AM 51.1 °F 46.9 °F 86% 29.96 in 10.0 mi NNW 8.1 mph - N/A   Overcast
6:55 AM 52.0 °F 46.9 °F 83% 29.96 in 10.0 mi NNW 10.4 mph - N/A   Overcast
7:55 AM 53.1 °F 46.9 °F 80% 29.97 in 10.0 mi NNW 11.5 mph 21.9 mph N/A   Overcast
8:55 AM 53.1 °F 46.9 °F 80% 29.97 in 10.0 mi NNW 13.8 mph 18.4 mph N/A   Overcast
9:55 AM 55.0 °F 48.0 °F 77% 29.97 in 10.0 mi NNW 12.7 mph 19.6 mph N/A   Overcast
10:36 AM 55.4 °F 48.2 °F 77% 29.96 in 10.0 mi North 10.4 mph 20.7 mph N/A   Overcast
10:55 AM 57.0 °F 48.0 °F 72% 29.98 in 10.0 mi North 9.2 mph - N/A   Overcast
11:30 AM 57.2 °F 48.2 °F 72% 29.98 in 10.0 mi North 10.4 mph - N/A   Overcast
11:55 AM 57.9 °F 48.9 °F 72% 30.00 in 10.0 mi North 9.2 mph 16.1 mph N/A   Overcast
12:55 PM 63.0 °F 50.0 °F 63% 29.99 in 10.0 mi NNW 10.4 mph - N/A   Mostly Cloudy
1:41 PM 64.4 °F 51.8 °F 64% 29.97 in 10.0 mi North 10.4 mph 20.7 mph N/A   Scattered Clouds
1:55 PM 64.9 °F 51.1 °F 61% 29.99 in 10.0 mi NNW 13.8 mph - N/A   Scattered Clouds
2:55 PM 68.0 °F 52.0 °F 56% 30.00 in 10.0 mi NW 12.7 mph 17.3 mph N/A   Scattered Clouds
3:55 PM 70.0 °F 52.0 °F 53% 29.99 in 10.0 mi NW 11.5 mph - N/A   Mostly Cloudy
4:55 PM 69.1 °F 48.0 °F 47% 30.00 in 10.0 mi North 10.4 mph - N/A   Mostly Cloudy
5:55 PM 70.0 °F 48.9 °F 47% 30.00 in 10.0 mi NNW 6.9 mph - N/A   Scattered Clouds
6:55 PM 69.1 °F 46.9 °F 45% 30.01 in 10.0 mi NNW 5.8 mph - N/A   Partly Cloudy
7:55 PM 66.9 °F 48.9 °F 52% 30.02 in 10.0 mi NNW 5.8 mph - N/A   Partly Cloudy
8:55 PM 63.0 °F 51.1 °F 65% 30.04 in 10.0 mi NW 3.5 mph - N/A   Partly Cloudy
9:55 PM 60.1 °F 50.0 °F 69% 30.06 in 10.0 mi Calm Calm - N/A   Partly Cloudy
10:55 PM 57.0 °F 48.9 °F 74% 30.06 in 10.0 mi Calm Calm - N/A   Partly Cloudy
11:55 PM 54.0 °F 48.0 °F 80% 30.07 in 10.0 mi Calm Calm - N/A   Partly Cloudy